[[{"header":{"parameterUnit":"m.s-1","parameterCategory":1,"la1":30.2991,"la2":30.254,"lo1":-89.0895,"lo2":-89.0444,"dy":0.0017,"dx":0.0017,"nx":28,"ny":28,"refTime":"2025-04-10T21:00:00:Z","depth":0,"parameterNumber":2,"parameterNumberName":"U-component_of_WINDS"},"data":[0,0,0,0,0,0,0,0,0,0,0,0,0,0,0,0,0,0,0,0,0,0,0,0,0,0,0,0,0,0,0,0,0,0,0,0,0,0,0,0,0,0,0,0,0,0,0,0,0,0,0,0,0,0,0,0,0,0,3.3312,3.3313,0,3.3364,3.3364,3.3365,3.3327,3.3325,3.3324,3.3322,3.3373,3.3376,3.3379,0,0,0,0,0,0,0,0,0,0,0,0,0,3.318,3.3183,3.3312,3.3313,3.3313,3.3364,3.3364,3.3365,3.3327,3.3325,3.3323,3.3321,3.3372,3.3376,3.3379,0,0,0,0,0,0,0,0,0,0,0,0,0,3.3235,3.3184,3.3312,3.33,3.33,3.3364,3.3364,3.3365,3.3328,3.3325,3.3323,3.332,3.3371,3.3375,3.338,3.3457,0,0,3.3393,3.3395,0,0,0,0,0,0,0,0,3.3232,3.324,3.3302,3.3301,3.3301,3.3336,3.3337,3.3396,3.3328,3.3317,3.3322,3.3319,3.3363,3.3368,3.3383,3.3459,3.3461,3.3394,3.3396,3.3398,3.3399,0,0,0,0,0,0,0,3.3228,3.3238,3.3332,3.3302,3.3302,3.3293,3.3298,3.3348,3.3353,3.3318,3.3315,3.3322,3.3362,3.3379,3.3384,3.3462,3.3393,3.3397,3.34,3.3402,3.3607,3.3609,0,0,0,0,0,0,3.3226,3.3235,3.3331,3.3334,3.326,3.3297,3.3303,3.3327,3.3353,3.3354,3.3324,3.332,3.3373,3.3379,3.3386,3.3479,3.3398,3.3402,3.3405,3.3604,3.3607,3.361,0,0,0,0,0,0,3.3223,3.3235,3.3329,3.3284,3.3295,3.3302,3.333,3.333,3.3346,3.3357,3.3358,3.334,3.3371,3.3379,3.344,3.348,3.3404,3.3408,3.36,3.3605,3.3609,3.3665,0,0,0,0,0,0,3.322,3.3234,3.3263,3.3285,3.3298,3.3382,3.3333,3.3333,3.3354,3.3349,3.3373,3.3374,3.337,3.3434,3.3444,3.3485,3.3412,3.3597,3.3602,3.3607,3.366,3.3671,3.368,0,0,0,0,0,3.3215,3.3276,3.3265,3.3277,3.3334,3.3385,3.3392,3.3386,3.3358,3.3387,3.3395,3.3373,3.3474,3.344,3.3452,3.3494,3.3594,3.3601,3.3607,3.3655,3.3669,3.368,0,0,0,0,0,0,3.3258,3.3279,3.3266,3.3336,3.3359,3.3378,3.3415,3.34,3.3431,3.3425,3.3416,3.3422,3.3486,3.3496,3.3458,3.3571,3.353,3.3539,3.3562,3.3575,3.3585,3.3581,3.3415,0,0,0,0,0,3.3276,3.3315,3.3331,3.3392,3.3404,3.3408,3.343,3.3423,3.3446,3.3456,3.3467,3.349,3.3527,3.3552,3.3586,3.3661,3.3666,3.3696,3.3706,3.3715,3.3723,3.3765,3.3779,3.3631,3.3631,3.3631,0,0,3.3313,3.3329,3.3354,3.3401,3.3418,3.3459,3.3416,3.3461,3.3492,3.3462,3.3521,3.3531,3.3556,3.3624,3.3655,3.3635,3.3765,3.3723,3.3729,3.3733,3.3773,3.3787,3.3799,3.3635,3.3635,3.3634,0,0,3.3401,3.3417,3.347,3.3489,3.3515,3.3518,3.3531,3.3553,3.3558,3.3617,3.3596,3.3633,3.3696,3.3716,3.3734,3.3833,3.3814,3.3844,3.3897,3.3939,3.395,3.3961,3.3997,3.401,3.3852,3.3852,3.3852,0,3.3443,3.3505,3.3499,3.3546,3.3568,3.3545,3.3598,3.3616,3.3653,3.3668,3.3645,3.3726,3.3741,3.3815,3.3839,3.3854,3.3869,3.3841,3.3949,3.3959,3.3969,3.4003,3.4017,3.3855,3.3855,3.3855,3.3854,0,3.3556,3.36,3.3639,3.3677,3.3703,3.3753,3.3755,3.3782,3.3774,3.3779,3.3841,3.3858,3.3897,3.3914,3.3906,3.3987,3.3974,3.395,3.3908,3.3987,3.4019,3.4032,3.386,3.3859,3.3858,3.3857,0,0,3.3672,3.3707,3.3721,3.3739,3.3768,3.3801,3.3851,3.389,3.3914,3.3941,3.3983,3.4038,3.4017,3.4038,3.4032,3.4069,3.4147,3.4041,3.4041,3.406,3.424,3.4258,3.4273,3.4136,3.4138,3.414,3.4238,0,3.3762,3.385,3.3847,3.3929,3.3969,3.3949,3.3993,3.4015,3.4022,3.4058,3.4065,3.4105,3.4074,3.4087,3.4122,3.413,3.4183,3.4123,3.4175,3.4177,3.417,3.429,3.4308,3.4399,3.425,3.4252,3.4254,0,3.3879,3.3911,3.3998,3.4023,3.404,3.4079,3.4115,3.415,3.4176,3.4178,3.4203,3.4192,3.4243,3.4201,3.4272,3.4231,3.4252,3.426,3.4264,3.4268,3.422,3.4298,3.4428,3.4442,3.4274,3.4272,3.4271,0,3.3956,3.4021,3.4081,3.4097,3.4127,3.4156,3.4169,3.4193,3.4217,3.4249,3.4265,3.4302,3.4323,3.4352,3.4352,3.432,3.4424,3.4381,3.4428,3.4428,3.4451,3.4449,3.4587,3.4464,3.4464,3.4464,3.4463,0,3.4058,3.4111,3.4117,3.4154,3.4214,3.421,3.427,3.4281,3.4303,3.4342,3.4326,3.4363,3.4361,3.4399,3.4399,3.4459,3.4468,3.4472,3.4471,3.4474,3.4473,3.4487,3.4481,3.4467,3.4466,3.4466,3.4465,0,3.4153,3.4159,3.4223,3.4248,3.4255,3.4299,3.4319,3.4355,3.4361,3.4412,3.4423,3.4433,3.4477,3.448,3.4531,3.4531,3.4604,3.4596,3.4595,3.4594,3.4641,3.4637,3.4793,3.4813,3.4677,3.4678,3.468,0,3.4218,3.4259,3.4288,3.4314,3.433,3.4371,3.4397,3.4395,3.4422,3.4456,3.4488,3.4531,3.4565,3.4637,3.4649,3.4688,3.4681,3.4733,3.4687,3.4688,3.4683,3.4681,3.4685,3.4742,3.4743,3.4745,3.4746,0,3.4332,3.4333,3.437,3.441,3.4441,3.4471,3.4499,3.4521,3.4523,3.4555,3.46,3.4627,3.468,3.4723,3.4762,3.4776,3.4762,3.476,3.4774,3.4776,3.4774,3.4777,3.462,3.4757,3.4755,3.4755,3.4754,3.4754,3.4414,3.4451,3.4478,3.452,3.4542,3.457,3.4605,3.4617,3.4655,3.4698,3.4695,3.4746,3.4773,3.4823,3.4841,3.4881,3.4863,3.4882,3.4887,3.4892,3.4897,3.4768,3.4888,3.4888,3.4887,3.4887,3.4887,0,3.4529,3.4546,3.4585,3.4626,3.466,3.4645,3.4676,3.4705,3.475,3.4777,3.4811,3.4865,3.4907,3.4923,3.4965,3.4994,3.4988,3.5005,3.5003,3.5006,3.491,3.4895,3.5008,3.5008,3.5008,3.5008,3.5008,3.5008,3.4592,3.4653,3.4658,3.4731,3.4747,3.4797,3.4817,3.4842,3.4864,3.4924,3.496,3.497,3.4993,3.5037,3.5075,3.5079,3.5095,3.5115,3.5116,3.5025,3.5013,3.5001,3.4987,3.5118,3.5118,3.5209,3.5209,3.521]},{"header":{"parameterUnit":"m.s-1","parameterCategory":1,"la1":30.2991,"la2":30.254,"lo1":-89.0895,"lo2":-89.0444,"dy":0.0017,"dx":0.0017,"nx":28,"ny":28,"refTime":"2025-04-10T21:00:00:Z","depth":0,"parameterNumber":3,"parameterNumberName":"V-component_of_WINDS"},"data":[0,0,0,0,0,0,0,0,0,0,0,0,0,0,0,0,0,0,0,0,0,0,0,0,0,0,0,0,0,0,0,0,0,0,0,0,0,0,0,0,0,0,0,0,0,0,0,0,0,0,0,0,0,0,0,0,0,0,-5.985,-5.9852,0,-5.9976,-5.9977,-5.9978,-5.9936,-5.9934,-5.9931,-5.9928,-6.0054,-6.006,-6.0066,0,0,0,0,0,0,0,0,0,0,0,0,0,-5.9572,-5.9578,-5.985,-5.9852,-5.9853,-5.9975,-5.9977,-5.9979,-5.9937,-5.9934,-5.993,-5.9927,-6.0052,-6.0059,-6.0066,0,0,0,0,0,0,0,0,0,0,0,0,0,-5.9695,-5.9579,-5.985,-5.9847,-5.9848,-5.9975,-5.9977,-5.9979,-5.9938,-5.9934,-5.9929,-5.9926,-6.005,-6.0058,-6.0067,-6.0203,0,0,-6.0094,-6.0098,0,0,0,0,0,0,0,0,-5.9688,-5.9705,-5.9846,-5.9848,-5.9849,-5.9936,-5.9925,-6.0054,-5.9939,-5.9904,-5.9928,-5.9924,-6.0018,-6.0029,-6.0062,-6.0209,-6.0215,-6.0095,-6.01,-6.0104,-6.0106,0,0,0,0,0,0,0,-5.968,-5.9699,-5.99,-5.9848,-5.985,-5.9839,-5.9852,-5.995,-5.9982,-5.9906,-5.9904,-5.9919,-6.0018,-6.0053,-6.0064,-6.0216,-6.0095,-6.0102,-6.0108,-6.0111,-6.0483,-6.0488,0,0,0,0,0,0,-5.9671,-5.9693,-5.9896,-5.9903,-5.9757,-5.9847,-5.9862,-5.9912,-5.9981,-5.9987,-5.9923,-5.9917,-6.004,-6.0054,-6.0068,-6.0234,-6.0104,-6.0112,-6.0117,-6.0479,-6.0485,-6.0489,0,0,0,0,0,0,-5.9665,-5.9689,-5.9891,-5.9797,-5.9822,-5.9857,-5.9914,-5.9917,-5.9952,-5.9993,-5.9998,-5.9953,-6.0037,-6.0056,-6.0171,-6.0237,-6.0116,-6.0124,-6.0474,-6.0481,-6.0487,-6.0564,0,0,0,0,0,0,-5.9657,-5.9687,-5.974,-5.9799,-5.9827,-5.9992,-5.9918,-5.9922,-5.9968,-5.9961,-6.0023,-6.0029,-6.0036,-6.0158,-6.0179,-6.0247,-6.0131,-6.0468,-6.0477,-6.0485,-6.0556,-6.0573,-6.0588,0,0,0,0,0,-5.9647,-5.9755,-5.9743,-5.9767,-5.9894,-5.9995,-6.0012,-6.0018,-5.9973,-6.0026,-6.0053,-6.0027,-6.0227,-6.017,-6.0194,-6.0265,-6.0464,-6.0474,-6.0484,-6.0549,-6.057,-6.0587,0,0,0,0,0,0,-5.9702,-5.9763,-5.9749,-5.988,-5.9933,-5.9988,-6.0055,-6.0039,-6.0105,-6.0096,-6.01,-6.0114,-6.0233,-6.026,-6.0196,-6.0402,-6.0338,-6.0354,-6.0379,-6.0399,-6.0415,-6.0406,-6.0138,0,0,0,0,0,-5.9729,-5.9807,-5.9856,-5.9967,-5.9994,-6.002,-6.0065,-6.0065,-6.012,-6.0141,-6.0176,-6.0229,-6.0304,-6.0353,-6.0424,-6.056,-6.0573,-6.0621,-6.0637,-6.0649,-6.0663,-6.0738,-6.076,-6.0523,-6.0523,-6.0523,0,0,-5.9786,-5.9829,-5.9878,-5.9979,-6.002,-6.01,-6.0039,-6.0126,-6.0186,-6.0154,-6.0265,-6.0293,-6.0352,-6.0479,-6.0536,-6.0505,-6.0731,-6.0663,-6.0672,-6.0679,-6.0751,-6.0773,-6.0793,-6.053,-6.0529,-6.0528,0,0,-5.9931,-5.9972,-6.0069,-6.0112,-6.0175,-6.0192,-6.0216,-6.0274,-6.0291,-6.0403,-6.0381,-6.0452,-6.058,-6.0624,-6.0663,-6.0827,-6.0806,-6.085,-6.0933,-6.1006,-6.1024,-6.1041,-6.11,-6.1122,-6.0863,-6.0864,-6.0864,0,-5.9994,-6.0115,-6.012,-6.0211,-6.0256,-6.0232,-6.0331,-6.0372,-6.0455,-6.0487,-6.0451,-6.0613,-6.0652,-6.0788,-6.0829,-6.0861,-6.0888,-6.0843,-6.1021,-6.1038,-6.1054,-6.111,-6.1133,-6.0869,-6.0868,-6.0867,-6.0867,0,-6.0189,-6.0274,-6.0344,-6.0427,-6.048,-6.0574,-6.0594,-6.0647,-6.0643,-6.0664,-6.0778,-6.0824,-6.0904,-6.0937,-6.0933,-6.1074,-6.1053,-6.102,-6.0956,-6.1081,-6.1135,-6.1156,-6.0876,-6.0874,-6.0872,-6.0871,0,0,-6.0371,-6.0457,-6.0483,-6.0521,-6.059,-6.0655,-6.0748,-6.0828,-6.0874,-6.0933,-6.1011,-6.1121,-6.1091,-6.1136,-6.1137,-6.1201,-6.133,-6.116,-6.1162,-6.1191,-6.1489,-6.1514,-6.1539,-6.1316,-6.132,-6.1324,-6.1484,0,-6.0523,-6.0687,-6.0696,-6.0845,-6.0924,-6.0903,-6.0984,-6.1036,-6.1058,-6.1127,-6.1151,-6.1229,-6.1184,-6.1211,-6.1273,-6.1301,-6.139,-6.1289,-6.1389,-6.1393,-6.1375,-6.1566,-6.1593,-6.1742,-6.1505,-6.1508,-6.1511,0,-6.0721,-6.0788,-6.0945,-6.1005,-6.1038,-6.1111,-6.1186,-6.1253,-6.131,-6.1322,-6.1373,-6.1365,-6.1461,-6.1394,-6.1526,-6.1457,-6.1499,-6.1519,-6.1524,-6.1534,-6.1459,-6.1582,-6.1789,-6.1812,-6.1543,-6.1541,-6.1538,0,-6.0839,-6.0968,-6.1079,-6.1112,-6.1184,-6.1236,-6.1268,-6.1322,-6.137,-6.1436,-6.1467,-6.1542,-6.1583,-6.1641,-6.1654,-6.1604,-6.1786,-6.172,-6.1798,-6.1798,-6.1837,-6.1835,-6.2055,-6.1864,-6.1863,-6.1863,-6.1862,0,-6.1008,-6.1105,-6.1134,-6.1202,-6.1311,-6.132,-6.1427,-6.1456,-6.1504,-6.1578,-6.1564,-6.1633,-6.1646,-6.1718,-6.1729,-6.1837,-6.1855,-6.1867,-6.1869,-6.1869,-6.1868,-6.1896,-6.1886,-6.1869,-6.1867,-6.1866,-6.1865,0,-6.1158,-6.1181,-6.1301,-6.136,-6.1377,-6.1455,-6.1505,-6.1571,-6.1592,-6.1686,-6.1708,-6.1741,-6.1825,-6.1844,-6.1944,-6.1951,-6.2079,-6.207,-6.206,-6.206,-6.2137,-6.213,-6.2384,-6.2418,-6.2203,-6.2205,-6.2207,0,-6.1264,-6.1339,-6.1407,-6.1456,-6.1491,-6.157,-6.162,-6.1631,-6.1684,-6.1756,-6.1814,-6.1897,-6.1964,-6.2099,-6.2132,-6.2208,-6.2201,-6.2285,-6.2213,-6.2211,-6.2204,-6.2199,-6.2207,-6.2299,-6.2301,-6.2303,-6.2305,0,-6.1451,-6.1459,-6.1531,-6.1609,-6.1669,-6.173,-6.1788,-6.1829,-6.1849,-6.1908,-6.1995,-6.2048,-6.215,-6.2233,-6.231,-6.2343,-6.2328,-6.2327,-6.235,-6.235,-6.2342,-6.2349,-6.2099,-6.2321,-6.232,-6.2318,-6.2317,-6.2317,-6.1583,-6.1649,-6.1708,-6.1789,-6.1835,-6.189,-6.1955,-6.1986,-6.2059,-6.2144,-6.2147,-6.2242,-6.2298,-6.2401,-6.2438,-6.2512,-6.2486,-6.2518,-6.2526,-6.2534,-6.2542,-6.233,-6.2526,-6.2526,-6.2525,-6.2525,-6.2525,0,-6.1769,-6.1806,-6.1882,-6.1965,-6.2029,-6.2011,-6.2074,-6.2129,-6.2214,-6.2269,-6.2336,-6.2436,-6.2517,-6.2556,-6.2636,-6.2688,-6.2683,-6.2709,-6.2705,-6.2713,-6.256,-6.2533,-6.2712,-6.2712,-6.2712,-6.2712,-6.2711,-6.2711,-6.1874,-6.1985,-6.2001,-6.2135,-6.2171,-6.2265,-6.2304,-6.2355,-6.2399,-6.2512,-6.258,-6.2605,-6.2655,-6.2738,-6.2812,-6.2821,-6.2851,-6.2881,-6.2887,-6.2743,-6.2724,-6.2706,-6.2681,-6.2887,-6.2887,-6.3034,-6.3035,-6.3036]}]]